COSMOS 2251 DEB, 34553

Orbit data source: Space-Track

COSMOS 2251 DEB, 34553 is space debris in LEO originally from a launch on Wed, 16 Jun 1993 UTC launched from the Plesetsk Missile And Space Complex (PKMTR). The debris from Iridium 33, an American commercial communications satellite, has been tracked extensively since its accidental collision with the defunct Russian satellite Cosmos 2251 in 2009. This event, occurring at high speed in low Earth orbit (LEO), generated thousands of pieces of space debris, significantly increasing the risk of further collisions. The Iridium 33 debris cloud has impacted space traffic management and orbital debris mitigation strategies, making it a subject of ongoing study in space situational awareness.

Loading next visibility...
Identifier
34553, 1993-036UP
Orbit
LEO
Country
Flag of CISCIS
Related business
Manufacturer
Unknown
Mission
Spacecraft
Bus & Motor
Unknown
Mass
Unknown
Launch date (UTC)
1993-06-16 (32 years ago)
Launch vehicle
Unknown
Launch site
Plesetsk Missile And Space Complex (PKMTR)
Object type
Payload
Rocket body
Debris
Shape & HBR
Unknown shape, 0.1 m
Radar Cross Section
Small (<0.1 m²)

Expand to show TLE details & history
Last TLE update: 11 hours ago

TLE from 11 hours ago
0 COSMOS 2251 DEB
1 34553U 93036UP  25304.11598412  .00009214  00000-0  20490-2 0  9999
2 34553  74.0249 272.9357 0020083 353.2289 133.6996 14.56963137874751
Epoch: 2025-10-31T02:47Z
TLE epoch observation values (Epoch: 2025-10-31T02:47:01.027Z)
Latitude
50.17908°
Longitude
-8.45206°
Altitude
720.495 km
Speed
7.495 km/s
True Right ascension
04h 51m 52s
True Declination
50° 00' 32"
Sunlit
Object was in full shadow at epoch
Visualization orbit readout
Latitude
Unknown
Longitude
Unknown
Altitude
Unknown
Speed
Unknown
Apparent Right ascension
Unknown
Apparent Declination
Unknown
Sunlit
N/A
Visualization observer readout
Local Sidereal Time
09:41:06
Azimuth
Unknown
Elevation
Unknown
Doppler factor
Unknown
Orbital elements
Apogee altitude
714.815 km
Perigee altitude
686.382 km
Semi-major axis
7,078.736 km
Eccentricity
0.00201
Inclination
74.0249°
RAAN
272.9357°
Arg. of periapsis
353.2289°
True anomaly
133.86569°
Mean anomaly
133.6996°
Eccentric anomaly
133.78267°
Mean motion
3.64426 °/min
Orbital period
98.79 mins
BSTAR
0.002049

Documentation

Showing up to 5 results
|